Photometre #795[NE_1.6] Beijing-CAMS AOT

File : 20200927_795.hum

27/09/2020,00:10:37,TEMP=20.8,BA=5.24,STAT.A=16.0,ExtBa=11.62
27/09/2020,00:13:02,TEMP=21.0,BA=5.24,STAT.A=16.0,ExtBa=12.00
27/09/2020,00:24:21,TEMP=20.9,BA=5.48,STAT.D=16.5,ExtBa=12.40
27/09/2020,00:26:26,TEMP=21.3,BA=5.48,STAT.A=16.5,ExtBa=12.07
27/09/2020,00:30:21,TEMP=21.4,BA=5.48,STAT.D=16.5,ExtBa=12.26
27/09/2020,00:33:21,TEMP=21.7,BA=5.48,STAT.D=16.5,ExtBa=11.91
27/09/2020,00:36:21,TEMP=22.1,BA=5.48,STAT.D=16.5,ExtBa=11.65
27/09/2020,00:38:34,TEMP=22.5,BA=5.48,STAT.A=16.0,ExtBa=11.78
27/09/2020,00:42:21,TEMP=22.6,BA=5.28,STAT.D=16.5,ExtBa=11.30
27/09/2020,00:45:21,TEMP=23.0,BA=5.28,STAT.D=16.5,ExtBa=11.08
27/09/2020,00:48:21,TEMP=23.2,BA=5.28,STAT.D=16.5,ExtBa=10.91
27/09/2020,00:51:21,TEMP=23.5,BA=5.36,STAT.D=16.5,ExtBa=10.96
27/09/2020,00:54:21,TEMP=23.7,BA=5.36,STAT.D=16.5,ExtBa=10.81
27/09/2020,00:56:24,TEMP=24.0,BA=5.36,STAT.B=16.5,ExtBa=10.90
27/09/2020,01:06:03,TEMP=24.4,BA=5.24,STAT.F,ExtBa=10.06
27/09/2020,01:21:01,TEMP=25.5,BA=5.20,STAT.D=16.5,ExtBa=10.12
27/09/2020,01:24:21,TEMP=25.6,BA=5.20,STAT.D=16.5,ExtBa=10.11
27/09/2020,01:27:21,TEMP=25.8,BA=5.20,STAT.D=16.5,ExtBa=10.12
27/09/2020,01:30:21,TEMP=26.0,BA=5.44,STAT.D=16.5,ExtBa=10.10
27/09/2020,01:33:21,TEMP=26.2,BA=5.44,STAT.D=16.5,ExtBa=10.09
27/09/2020,01:36:01,TEMP=26.4,BA=5.44,STAT.D=16.5,ExtBa=10.08
27/09/2020,01:39:21,TEMP=26.6,BA=5.44,STAT.D=16.5,ExtBa=10.08
27/09/2020,01:42:21,TEMP=26.8,BA=5.20,STAT.D=16.5,ExtBa=10.08
27/09/2020,01:45:21,TEMP=27.0,BA=5.20,STAT.D=16.5,ExtBa=10.08
27/09/2020,01:48:22,TEMP=27.1,BA=5.20,STAT.D=16.5,ExtBa=10.08
27/09/2020,01:51:01,TEMP=27.3,BA=5.32,STAT.D=16.5,ExtBa=10.07
27/09/2020,01:54:21,TEMP=27.4,BA=5.32,STAT.D=17.5,ExtBa=10.07
27/09/2020,01:57:22,TEMP=27.6,BA=5.32,STAT.D=17.5,ExtBa=10.07
27/09/2020,02:00:21,TEMP=27.8,BA=5.44,STAT.D=17.5,ExtBa=10.07
27/09/2020,02:03:21,TEMP=27.9,BA=5.44,STAT.D=17.5,ExtBa=10.08
27/09/2020,02:06:03,TEMP=28.1,BA=5.44,STAT.F,ExtBa=10.06
27/09/2020,02:21:13,TEMP=28.1,BA=5.20,STAT.D=17.5,ExtBa=10.29
27/09/2020,02:24:22,TEMP=28.2,BA=5.20,STAT.D=17.5,ExtBa=10.16
27/09/2020,02:27:22,TEMP=28.4,BA=5.20,STAT.D=17.5,ExtBa=10.13
27/09/2020,02:30:22,TEMP=28.4,BA=5.32,STAT.D=17.5,ExtBa=10.11
27/09/2020,02:36:02,TEMP=28.5,BA=5.32,STAT.D=17.5,ExtBa=10.15
27/09/2020,02:39:22,TEMP=28.7,BA=5.32,STAT.D=17.5,ExtBa=10.12
27/09/2020,02:42:22,TEMP=28.9,BA=5.20,STAT.D=17.5,ExtBa=10.13
27/09/2020,02:45:22,TEMP=29.3,BA=5.20,STAT.D=17.5,ExtBa=10.13
27/09/2020,02:48:22,TEMP=29.5,BA=5.20,STAT.D=17.5,ExtBa=10.10
27/09/2020,02:51:02,TEMP=29.7,BA=5.28,STAT.D=17.5,ExtBa=10.11
27/09/2020,02:54:22,TEMP=29.7,BA=5.28,STAT.D=17.5,ExtBa=10.10
27/09/2020,02:57:22,TEMP=29.7,BA=5.28,STAT.D=17.5,ExtBa=10.08
27/09/2020,03:00:22,TEMP=29.7,BA=5.32,STAT.D=17.5,ExtBa=10.08
27/09/2020,03:03:22,TEMP=29.8,BA=5.32,STAT.D=17.5,ExtBa=10.10
27/09/2020,03:06:03,TEMP=30.0,BA=5.32,STAT.F,ExtBa=10.06
27/09/2020,03:18:22,TEMP=30.3,BA=5.32,STAT.D=17.5,ExtBa=10.15
27/09/2020,03:21:02,TEMP=30.6,BA=5.28,STAT.D=17.5,ExtBa=10.14
27/09/2020,03:24:22,TEMP=30.6,BA=5.28,STAT.D=17.5,ExtBa=10.13
27/09/2020,03:27:22,TEMP=30.7,BA=5.28,STAT.D=17.5,ExtBa=10.12
27/09/2020,03:30:22,TEMP=30.7,BA=5.32,STAT.D=17.5,ExtBa=10.09
27/09/2020,03:33:22,TEMP=30.7,BA=5.32,STAT.D=17.5,ExtBa=10.10
27/09/2020,03:36:02,TEMP=30.8,BA=5.32,STAT.D=17.5,ExtBa=10.06
27/09/2020,03:39:22,TEMP=30.6,BA=5.32,STAT.D=17.5,ExtBa=10.07
27/09/2020,03:42:22,TEMP=30.5,BA=5.16,STAT.D=17.5,ExtBa=10.07
27/09/2020,03:45:22,TEMP=30.4,BA=5.16,STAT.D=17.5,ExtBa=10.08
27/09/2020,03:51:02,TEMP=30.2,BA=5.32,STAT.D=18.0,ExtBa=10.11
27/09/2020,04:03:22,TEMP=29.2,BA=5.40,STAT.D=18.0,ExtBa=10.13
27/09/2020,04:06:03,TEMP=29.1,BA=5.40,STAT.F,ExtBa=10.11
27/09/2020,04:18:22,TEMP=29.3,BA=5.24,STAT.D=17.5,ExtBa=10.16
27/09/2020,04:21:02,TEMP=29.8,BA=5.28,STAT.D=17.5,ExtBa=10.14
27/09/2020,04:24:22,TEMP=29.9,BA=5.28,STAT.D=17.5,ExtBa=10.09
27/09/2020,04:27:22,TEMP=30.1,BA=5.28,STAT.D=17.5,ExtBa=10.11
27/09/2020,04:36:02,TEMP=29.6,BA=5.40,STAT.D=18.0,ExtBa=10.14
27/09/2020,04:39:22,TEMP=29.7,BA=5.40,STAT.D=17.5,ExtBa=10.11
27/09/2020,04:51:02,TEMP=29.0,BA=5.40,STAT.D=18.0,ExtBa=10.17
27/09/2020,04:54:22,TEMP=29.1,BA=5.40,STAT.D=17.5,ExtBa=10.14
27/09/2020,04:57:22,TEMP=29.3,BA=5.40,STAT.D=17.5,ExtBa=10.12
27/09/2020,05:00:22,TEMP=29.4,BA=5.40,STAT.D=17.5,ExtBa=10.10
27/09/2020,05:06:03,TEMP=29.1,BA=5.40,STAT.F,ExtBa=10.11
27/09/2020,05:18:22,TEMP=28.7,BA=5.40,STAT.D=18.0,ExtBa=10.17
27/09/2020,05:21:02,TEMP=28.8,BA=5.28,STAT.D=17.5,ExtBa=10.13
27/09/2020,05:33:22,TEMP=28.7,BA=5.40,STAT.D=17.5,ExtBa=10.19
27/09/2020,05:36:02,TEMP=29.0,BA=5.40,STAT.D=17.5,ExtBa=10.15
27/09/2020,05:39:22,TEMP=29.1,BA=5.40,STAT.D=17.5,ExtBa=10.12
27/09/2020,05:42:22,TEMP=29.3,BA=5.16,STAT.D=17.5,ExtBa=10.11
27/09/2020,05:45:22,TEMP=29.4,BA=5.16,STAT.D=17.5,ExtBa=10.11
27/09/2020,05:48:22,TEMP=29.5,BA=5.16,STAT.D=17.5,ExtBa=10.11
27/09/2020,05:51:02,TEMP=29.6,BA=5.24,STAT.D=17.5,ExtBa=10.10
27/09/2020,06:03:21,TEMP=28.7,BA=5.40,STAT.D=18.0,ExtBa=10.16
27/09/2020,06:06:03,TEMP=28.7,BA=5.40,STAT.F,ExtBa=10.09
27/09/2020,06:21:02,TEMP=29.1,BA=5.12,STAT.D=17.5,ExtBa=10.13
27/09/2020,06:33:21,TEMP=29.3,BA=5.32,STAT.D=17.5,ExtBa=10.15
27/09/2020,06:36:01,TEMP=29.5,BA=5.32,STAT.D=17.5,ExtBa=10.10
27/09/2020,06:39:21,TEMP=29.5,BA=5.32,STAT.D=17.5,ExtBa=10.11
27/09/2020,06:42:21,TEMP=29.4,BA=5.16,STAT.D=17.5,ExtBa=10.11
27/09/2020,06:45:21,TEMP=29.5,BA=5.16,STAT.D=17.5,ExtBa=10.11
27/09/2020,06:48:21,TEMP=29.5,BA=5.16,STAT.D=17.5,ExtBa=10.08
27/09/2020,06:51:01,TEMP=29.5,BA=5.24,STAT.D=17.5,ExtBa=10.08
27/09/2020,07:03:21,TEMP=29.0,BA=5.40,STAT.D=18.0,ExtBa=10.13
27/09/2020,07:06:03,TEMP=29.2,BA=5.40,STAT.F,ExtBa=10.10
27/09/2020,07:21:07,TEMP=29.0,BA=5.08,STAT.B=17.5,ExtBa=10.19
27/09/2020,07:33:21,TEMP=28.7,BA=5.28,STAT.D=17.5,ExtBa=10.16
27/09/2020,07:35:22,TEMP=28.9,BA=5.28,STAT.A=17.5,ExtBa=10.12
27/09/2020,07:39:21,TEMP=28.7,BA=5.28,STAT.D=17.5,ExtBa=10.13
27/09/2020,07:42:21,TEMP=28.9,BA=5.12,STAT.D=17.5,ExtBa=10.12
27/09/2020,07:45:21,TEMP=28.9,BA=5.12,STAT.D=17.5,ExtBa=10.12
27/09/2020,07:47:37,TEMP=28.9,BA=5.12,STAT.A=17.5,ExtBa=10.10
27/09/2020,07:51:21,TEMP=28.7,BA=5.28,STAT.D=17.5,ExtBa=10.12
27/09/2020,07:54:21,TEMP=28.6,BA=5.28,STAT.D=17.5,ExtBa=10.11
27/09/2020,07:57:21,TEMP=28.6,BA=5.28,STAT.D=17.5,ExtBa=10.10
27/09/2020,07:59:46,TEMP=28.5,BA=5.28,STAT.A=17.5,ExtBa=10.05
27/09/2020,08:08:35,TEMP=27.8,BA=5.12,STAT.A=18.0,ExtBa=10.15
27/09/2020,08:12:21,TEMP=27.7,BA=5.12,STAT.D=17.5,ExtBa=10.13
27/09/2020,08:15:21,TEMP=27.6,BA=5.12,STAT.D=17.5,ExtBa=10.12
27/09/2020,08:17:16,TEMP=27.7,BA=5.12,STAT.C=17.5,ExtBa=10.09
27/09/2020,08:27:20,TEMP=27.1,BA=5.12,STAT.A=17.5,ExtBa=10.06
27/09/2020,08:29:41,TEMP=27.0,BA=5.12,STAT.A=17.5,ExtBa=10.06
27/09/2020,08:33:21,TEMP=26.8,BA=5.12,STAT.D=17.5,ExtBa=10.09
27/09/2020,08:35:15,TEMP=26.9,BA=5.12,STAT.A=17.5,ExtBa=10.06
27/09/2020,08:39:21,TEMP=26.5,BA=5.12,STAT.D=17.5,ExtBa=10.09
27/09/2020,08:41:15,TEMP=26.7,BA=5.12,STAT.A=17.5,ExtBa=10.06
27/09/2020,08:43:57,TEMP=26.5,BA=5.12,STAT.B=17.5,ExtBa=10.07
27/09/2020,08:52:45,TEMP=25.7,BA=5.28,STAT.A=17.5,ExtBa=10.13
27/09/2020,08:57:20,TEMP=25.6,BA=5.28,STAT.D=17.5,ExtBa=10.12
27/09/2020,08:59:43,TEMP=25.7,BA=5.28,STAT.A=17.5,ExtBa=10.10
27/09/2020,09:03:20,TEMP=25.5,BA=5.12,STAT.D=17.5,ExtBa=10.10
27/09/2020,09:05:22,TEMP=25.6,BA=5.12,STAT.A=17.5,ExtBa=10.08
27/09/2020,09:10:03,TEMP=25.2,BA=5.12,STAT.A=17.5,ExtBa=10.11
27/09/2020,09:14:00,TEMP=25.0,BA=5.12,STAT.A=17.5,ExtBa=10.11
27/09/2020,09:17:22,TEMP=25.0,BA=5.12,STAT.A=17.5,ExtBa=10.11
27/09/2020,22:55:43,TEMP=16.9,BA=5.52,STAT.A=16.5,ExtBa=12.20
27/09/2020,22:59:05,TEMP=17.2,BA=5.52,STAT.A=16.5,ExtBa=12.17
27/09/2020,23:03:02,TEMP=17.3,BA=5.32,STAT.A=16.5,ExtBa=12.16
27/09/2020,23:07:44,TEMP=17.4,BA=5.32,STAT.A=16.5,ExtBa=12.15
27/09/2020,23:13:23,TEMP=17.6,BA=5.48,STAT.A=16.5,ExtBa=12.16
27/09/2020,23:20:22,TEMP=17.8,BA=5.56,STAT.A=16.5,ExtBa=12.16
27/09/2020,23:29:12,TEMP=18.2,BA=5.56,STAT.B=16.5,ExtBa=12.16
27/09/2020,23:33:26,TEMP=18.5,BA=5.32,STAT.A=16.5,ExtBa=12.11
27/09/2020,23:36:20,TEMP=18.7,BA=5.32,STAT.D=16.5,ExtBa=12.10
27/09/2020,23:39:22,TEMP=19.1,BA=5.32,STAT.A=16.0,ExtBa=12.07
27/09/2020,23:43:30,TEMP=19.2,BA=5.28,STAT.A=16.0,ExtBa=12.04
27/09/2020,23:49:35,TEMP=19.3,BA=5.28,STAT.A=16.5,ExtBa=12.06
27/09/2020,23:56:33,TEMP=19.4,BA=5.32,STAT.C=16.5,ExtBa=12.08